Regional Weather Roundup
Issued by NWS Albany, NY

Home | Current Version | Previous Version | Graphics & Text | Print | Product List | Glossary Off
Versions: 1 2 3 4 5 6 7 8 9 10 11 12 13 14 15 16 17 18 19 20 21 22 23 24 25 26 27 28 29 30 31 32 33 34 35 36 37 38 39 40 41 42 43 44 45 46 47 48 49 50

000
ASUS41 KALY 012310
RWRALY

NEW YORK STATE HOURLY WEATHER ROUNDUP
NATIONAL WEATHER SERVICE ALBANY NY
700 PM EDT SAT AUG 01 2015

NOTE: "FAIR" INDICATES FEW OR NO CLOUDS BELOW 12,000 FEET WITH NO
SIGNIFICANT WEATHER AND/OR NO OBSTRUCTIONS TO VISIBILITY.

NYZ032-033-038>043-046>054-057>066-NYZ062>081-020000-
EAST


CITY           SKY/WX    TMP DP  RH WIND       PRES   REMARKS
ALBANY         MOSUNNY   80  55  42 NW9       29.78R
GLENS FALLS    SUNNY     78  49  35 W9        29.76R
POUGHKEEPSIE   MOSUNNY   85  52  32 W12       29.77R
NEWBURGH       MOSUNNY   82  57  42 W14       29.80S
MONTGOMERY     SUNNY     82  56  40 W8        29.79S
WHITE PLAINS   MOSUNNY   81  58  45 W6        29.79S
ISLIP          MOSUNNY   85  58  39 NW12      29.76R
NEW YORK CITY  MOSUNNY   85  57  38 NW13G20   29.77S
CENTRAL PARK   MOSUNNY   85  56  37 VRB5      29.81R
$$

NYZ005>009-017-018-044>046-055-056-020000-
CENTRAL


CITY           SKY/WX    TMP DP  RH WIND       PRES   REMARKS
FULTON         MOSUNNY   73  54  51 W8        29.82S
SYRACUSE       PTSUNNY   75  57  53 NW8       29.81S
ROME           SUNNY     72  53  51 W13       29.82R
ELMIRA         SUNNY     77  52  41 NW10      29.84S
BINGHAMTON     SUNNY     74  52  46 NW9       29.87R
MONTICELLO     MOSUNNY   75  54  46 NW8       29.86S
$$

NYZ026>034-041>043-020000-
NORTH


CITY           SKY/WX    TMP DP  RH WIND       PRES   REMARKS
WATERTOWN      SUNNY     72  59  63 SW10G18   29.80R
FORT DRUM      NOT AVBL
MASSENA        CLOUDY    61  57  87 S6        29.79S THUNDER
SARANAC LAKE   CLOUDY    68  53  58 VRB5      29.81R
PLATTSBURGH    CLOUDY    75  55  49 NW7       29.73R
$$

NYZ001>004-010>016-019>021-020000-
WEST


CITY           SKY/WX    TMP DP  RH WIND       PRES   REMARKS
BUFFALO        PTSUNNY   71  55  56 SW17G28   29.85S THUNDER
DUNKIRK        SUNNY     74  58  57 W13G23    29.87R
JAMESTOWN      SUNNY     70  50  49 W12       29.93R
WELLSVILLE     SUNNY     72  50  45 W12       29.93R
ROCHESTER      PTSUNNY   74  58  57 W9        29.84S
PENN YAN       MOSUNNY   73  56  54 NW6       29.86R
$$

             KEY
       WCI = WIND CHILL INDEX
       VSB = VISIBILITY
       HX  = HEAT INDEX
$$



USA.gov is the U.S. government's official web portal to all federal, state and local government web resources and services.